Location: Bergfeld
(52.0500°N, 11.7833°E)
Time: 11:15:17
(UTC+00:00)

Cosmos 2360 Rocket - Pass Details

Date: 17 February 2020
Orbit: 835 x 843 km, 71.0° (Epoch: 09 April)

Event Time Altitude Azimuth Distance (km) Brightness Sun altitude
Exits shadow 02:43:37 23° 360° (N) 1,724 4.0 -34.0°
Drops below altitude 10° 02:46:11 10° 20° (NNE) 2,466 5.1 -33.7°
Sets 02:48:54 0° 30° (NNE) 3,403 6.1 -33.3°
